Flag for Germany Weather past 2 weeks in Kamen, North Rhine-Westphalia, Germany

57 °F

Scattered showers. Partly sunny.

Feels Like: 56 °F
Forecast: 54 / 58 °F
Wind: 6 mph from Southwest

Location: Dortmund / Wickede

Current Time: Oct 7, 2015 at 8:03:16 PM

Latest Report: Oct 7, 2015 at 7:20 PM

Visibility: N/A

Pressure: 29.92 "Hg

Humidity: 82%

Dew point: 52 °F

Location of KamenLocation

Historic Weather in Kamen — Graph


Kamen temperature yesterday

Maximum temperature yesterday: 68 °F (at 3:50 PM)
Minimum temperature yesterday: 55 °F (at 5:20 AM)
Average temperature yesterday: 62 °F

Past Weeks' High & Low Weather Summary

High68 °F (Oct 3, 2:50 PM)94% (Sep 26, 5:20 AM)30.66 "Hg (Sep 26, 5:20 AM)
Low36 °F (Oct 2, 6:20 AM)39% (Sep 30, 4:20 PM)29.50 "Hg (Sep 22, 6:20 PM)
Average55 °F71%30.16 "Hg
* Reported Sep 22 6:20 PM — Oct 7 6:50 PM, Kamen, Weather by CustomWeather, © 2015

Note: Actual official high and low records may vary slightly from our data, if they occured in-between our weather recording intervals... More about our weather records


Kamen weather history for previous 24 hours

Time TempWeatherWind HumidityBarometerVisibility
6:50 PM
Wed, Oct 7
57 °FSprinkles. Partly sunny.12 mph82%29.92 "HgN/A
6:20 PM59 °FScattered showers. Partly sunny.7 mph77%29.92 "HgN/A
5:50 PM59 °FPartly sunny.6 mph82%29.89 "HgN/A
5:20 PM59 °FPartly sunny.8 mph82%29.89 "HgN/A
4:50 PM59 °FScattered showers. Partly sunny.12 mph77%29.89 "HgN/A
4:20 PM59 °FPartly sunny.12 mph82%29.89 "HgN/A
3:50 PM61 °FScattered showers. Partly sunny.12 mph77%29.89 "HgN/A
3:20 PM61 °FScattered showers. Partly sunny.12 mph77%29.86 "HgN/A
2:50 PM61 °FScattered showers. Partly sunny.13 mph77%29.86 "HgN/A
2:20 PM59 °FScattered showers. Partly sunny.7 mph82%29.86 "HgN/A
1:50 PM59 °FLight rain. Partly sunny.6 mph82%29.86 "HgN/A
1:20 PM59 °FSprinkles. Partly sunny.10 mph82%29.86 "HgN/A
12:50 PM61 °FScattered showers. Partly sunny.10 mph77%29.83 "HgN/A
12:20 PM63 °FPartly sunny.12 mph73%29.83 "HgN/A
11:50 AM63 °FPartly sunny.10 mph73%29.83 "HgN/A
11:20 AM63 °FScattered clouds.10 mph73%29.83 "HgN/A
10:50 AM61 °FPassing clouds.8 mph77%29.80 "HgN/A
10:20 AM61 °FPassing clouds.7 mph77%29.80 "HgN/A
9:50 AM61 °FPassing clouds.7 mph77%29.80 "HgN/A
9:20 AM59 °FScattered clouds.7 mph82%29.80 "HgN/A
8:50 AM59 °FScattered showers. Scattered clouds.9 mph82%29.77 "HgN/A
8:20 AM57 °FScattered showers. Passing clouds.6 mph88%29.77 "HgN/A
7:50 AM57 °FPassing clouds.6 mph82%29.74 "HgN/A
7:20 AM57 °FClear.6 mph88%29.74 "Hg10 mi
6:50 AM57 °FClear.6 mph82%29.74 "Hg10 mi
6:20 AM57 °FPassing clouds.5 mph88%29.74 "HgN/A
5:50 AM57 °FClear.7 mph82%29.74 "Hg10 mi
5:20 AM59 °FClear.6 mph82%29.71 "Hg10 mi
10:50 PM
Tue, Oct 6
59 °FClear.9 mph82%29.68 "Hg10 mi
10:20 PM59 °FClear.8 mph88%29.68 "Hg10 mi
9:50 PM61 °FClear.8 mph83%29.65 "Hg10 mi
9:20 PM61 °FClear.9 mph83%29.65 "Hg10 mi
8:50 PM61 °FClear.7 mph88%29.65 "Hg10 mi
8:20 PM61 °FPassing clouds.5 mph88%29.65 "HgN/A
Weather by CustomWeather, © 2015

See weather overviewHow to use our weather pages